Location: Ladrillo (historical)
(32.8195°N, 117.2231°W)
Time: 10:25:00
(UTC+00:00)

Transit 2A - All Passes

Search period start: 01 March 2021 00:00
Search period end: 11 March 2021 00:00
Orbit: 601 x 958 km, 66.7° (Epoch: 28 February)

Date Brightness Start Highest point End Pass type
(mag) Time Alt. Az. Time Alt. Az. Time Alt. Az.
01 Mar - 02:18:03 10° SSW 02:23:43 72° ESE 02:28:50 10° NNE visible
01 Mar - 04:04:35 10° W 04:07:12 14° NW 04:09:44 10° NNW visible
01 Mar - 11:10:30 10° NNE 11:13:27 17° NE 11:16:24 10° E visible
01 Mar - 12:52:42 10° NW 12:56:36 34° WSW 13:00:37 10° S visible
02 Mar - 01:44:12 10° S 01:49:35 46° ESE 01:54:30 10° NE daylight
02 Mar - 03:28:53 10° WSW 03:32:51 20° NW 03:36:34 10° N visible
02 Mar - 10:37:44 10° NNE 10:39:04 11° NE 10:40:24 10° ENE night (unlit)
02 Mar - 12:18:16 10° NW 12:22:31 58° WSW 12:26:53 10° SSE visible
03 Mar - 01:10:38 10° S 01:15:29 30° ESE 01:19:58 10° NE daylight
03 Mar - 02:53:47 10° WSW 02:58:34 30° WNW 03:02:59 10° N visible
03 Mar - 11:44:03 10° NNW 11:48:24 83° ENE 11:52:50 10° SSE visible
04 Mar - 00:37:31 10° SSE 00:41:25 19° ESE 00:45:06 10° ENE daylight
04 Mar - 02:19:02 10° SW 02:24:19 44° WNW 02:29:10 10° NNE visible
04 Mar - 11:10:01 10° NNW 11:14:13 49° ENE 11:18:31 10° SE night (unlit)
04 Mar - 12:55:42 10° W 12:56:52 11° WSW 12:58:02 10° WSW visible
05 Mar - 00:05:20 10° SE 00:07:24 12° ESE 00:09:23 10° E daylight
05 Mar - 01:44:34 10° SSW 01:50:08 69° WNW 01:55:11 10° NNE daylight
05 Mar - 10:36:10 10° N 10:40:00 30° ENE 10:43:53 10° ESE night (unlit)
05 Mar - 12:19:49 10° WNW 12:22:51 19° WSW 12:25:58 10° SSW night (unlit)
06 Mar - 01:10:22 10° SSW 01:15:59 78° ESE 01:21:02 10° NNE daylight
06 Mar - 02:57:25 10° WNW 02:59:30 12° NW 03:01:32 10° NNW visible
06 Mar - 10:02:34 10° N 10:05:43 19° NE 10:08:52 10° ESE night (unlit)
06 Mar - 11:45:00 10° NW 11:48:49 31° WSW 11:52:45 10° S night (unlit)
07 Mar - 00:36:26 10° S 00:41:50 50° ESE 00:46:45 10° NE daylight
07 Mar - 02:21:29 10° W 02:25:09 18° NW 02:28:36 10° NNW visible
07 Mar - 09:29:32 10° NNE 09:31:21 12° NE 09:33:11 10° ENE night (unlit)
07 Mar - 11:10:31 10° NW 11:14:44 52° WSW 11:19:05 10° S night (unlit)
08 Mar - 00:02:49 10° S 00:07:45 32° ESE 00:12:16 10° NE daylight
08 Mar - 01:46:16 10° WSW 01:50:50 27° WNW 01:55:04 10° N daylight
08 Mar - 10:36:16 10° NNW 10:40:36 89° WSW 10:45:05 10° SSE night (unlit)
08 Mar - 23:29:37 10° SSE 23:33:40 21° ESE 23:37:28 10° ENE daylight
09 Mar - 01:11:27 10° SW 01:16:36 41° WNW 01:21:18 10° N daylight
09 Mar - 10:02:12 10° NNW 10:06:27 54° ENE 10:10:49 10° SE night (unlit)
09 Mar - 22:57:11 10° SE 22:59:37 13° ESE 23:01:59 10° E daylight
10 Mar - 00:36:56 10° SW 00:42:24 63° WNW 00:47:22 10° NNE daylight
10 Mar - 09:28:18 10° N 09:32:14 33° ENE 09:36:15 10° SE night (unlit)
10 Mar - 11:12:13 10° WNW 11:15:03 17° WSW 11:17:58 10° SSW night (unlit)
